Location: Rometta
(44.2000°N, 10.0500°E)
Time: 12:05:24
(UTC+00:00)

Cosmos 1818 - Pass Details

Date: 17 May 2021
Orbit: 771 x 802 km, 65.0° (Epoch: 15 June)

Event Time Altitude Azimuth Distance (km) Brightness Sun altitude
Rises 19:14:06 0° 331° (NNW) 3,319 8.1 -5.7°
Reaches altitude 10° 19:17:03 10° 346° (NNW) 2,387 6.9 -6.1°
Maximum altitude 19:21:22 23° 37° (NE) 1,659 5.3 -6.8°
Drops below altitude 10° 19:25:39 10° 89° (E) 2,376 5.6 -7.4°
Enters shadow 19:27:02 - 97° (E) 2,791 5.9 -7.6°
